Weather History for KHKY - January, 2012

Change the Weather History Date:

Monday, January 2, 2012

  Actual Average Record
Temperature  
Mean Temperature 34 °F -  
Max Temperature 43 °F 48 °F 76 °F (1952)
Min Temperature 24 °F 31 °F 16 °F (1958)
Degree Days  
Heating Degree Days 30    
Moisture  
Dew Point 12 °F    
Average Humidity 38    
Maximum Humidity 50    
Minimum Humidity 27    
Precipitation  
Precipitation 0.00 in - - ()
Sea Level Pressure  
Sea Level Pressure 30.01 in    
Wind  
Wind Speed 9 mph (NW)    
Max Wind Speed 22 mph    
Max Gust Speed 33 mph    
Visibility 10 miles    
Events      
Averages and records for this station are not official NWS values.
T = Trace of Precipitation, MM = Missing Value Source: NWS Daily Summary

Daily Weather History Graph

Daily Weather History Graph

Search for Another Location

Airport or City:

Trip Planner

Search our weather history database for the weather conditions in past years. The results will help you decide how hot, cold, wet, or windy it might be!

Date:

Astronomy

Jan. 02, 2012 Rise Set
Actual Time 7:35 AM EST 5:23 PM EST
Civil Twilight 7:07 AM EST 5:51 PM EST
Nautical Twilight 6:35 AM EST 6:23 PM EST
Astronomical Twilight 6:04 AM EST 6:54 PM EST
Moon 12:34 PM EST 1:32 AM EST
Length of Visible Light 10h 44m
Length of Day
9h 47m
Waxing Gibbous, 63% of the Moon is Illuminated
Jan 2
Waxing Gibbous
Jan 9
Full
Jan 16
Last Quarter
Jan 23
New
Jan 30
First Quarter

Hourly Weather History & Observations

Time (EST) Temp. Windchill Dew Point Humidity Pressure Visibility Wind Dir Wind Speed Gust Speed Precip Events Conditions
12:53 AM 42.8 °F 41.1 °F 21.2 °F 42% 30.02 in 10.0 mi NW 3.5 mph - N/A   Clear
1:53 AM 42.1 °F 34.9 °F 21.9 °F 45% 29.99 in 10.0 mi WNW 13.8 mph 19.6 mph N/A   Clear
2:53 AM 39.9 °F 32.9 °F 16.0 °F 38% 29.99 in 10.0 mi WNW 11.5 mph 18.4 mph N/A   Clear
3:53 AM 37.9 °F 33.5 °F 16.0 °F 41% 29.99 in 10.0 mi NNW 5.8 mph - N/A   Clear
4:53 AM 35.1 °F - 16.0 °F 46% 29.99 in 10.0 mi Calm Calm - N/A   Clear
5:53 AM 36.0 °F 32.1 °F 16.0 °F 44% 30.01 in 10.0 mi WNW 4.6 mph - N/A   Clear
6:53 AM 34.0 °F 28.8 °F 16.0 °F 48% 30.01 in 10.0 mi WNW 5.8 mph - N/A   Clear
7:53 AM 32.0 °F 26.4 °F 15.1 °F 50% 30.03 in 10.0 mi West 5.8 mph - N/A   Clear
8:53 AM 37.0 °F 29.3 °F 14.0 °F 39% 30.03 in 10.0 mi West 11.5 mph - N/A   Clear
9:53 AM 39.0 °F 31.8 °F 12.9 °F 34% 30.04 in 10.0 mi West 11.5 mph - N/A   Clear
10:53 AM 39.2 °F 32.0 °F 12.2 °F 33% 30.04 in 10.0 mi West 11.5 mph 17.3 mph N/A   Clear
11:53 AM 42.1 °F 33.9 °F 10.0 °F 27% 29.99 in 10.0 mi West 17.3 mph 24.2 mph N/A   Clear
12:53 PM 43.0 °F 36.0 °F 10.9 °F 27% 29.95 in 10.0 mi West 13.8 mph 23.0 mph N/A   Clear
1:53 PM 42.8 °F 37.5 °F 10.4 °F 27% 29.94 in 10.0 mi NNW 9.2 mph - N/A   Clear
2:53 PM 42.1 °F 36.6 °F 10.0 °F 27% 29.93 in 10.0 mi NW 9.2 mph 20.7 mph N/A   Clear
3:53 PM 39.0 °F 29.9 °F 10.0 °F 30% 29.96 in 10.0 mi NW 17.3 mph 26.5 mph N/A   Clear
4:53 PM 36.0 °F 26.7 °F 10.0 °F 34% 29.97 in 10.0 mi WNW 15.0 mph 25.3 mph N/A   Clear
5:53 PM 34.0 °F 22.1 °F 9.0 °F 35% 29.99 in 10.0 mi NW 21.9 mph 33.4 mph N/A   Partly Cloudy
6:53 PM 30.9 °F 21.7 °F 10.0 °F 42% 30.03 in 10.0 mi WNW 11.5 mph - N/A   Clear
7:53 PM 30.0 °F 17.9 °F 5.0 °F 35% 30.05 in 10.0 mi NW 18.4 mph 25.3 mph N/A   Clear
8:53 PM 28.0 °F 19.3 °F 9.0 °F 45% 30.06 in 10.0 mi NNW 9.2 mph 21.9 mph N/A   Partly Cloudy
9:53 PM 27.0 °F 16.1 °F 7.0 °F 43% 30.07 in 10.0 mi NNW 12.7 mph 18.4 mph N/A   Clear
10:53 PM 26.1 °F 17.6 °F 3.0 °F 37% 30.08 in 10.0 mi NW 8.1 mph 26.5 mph N/A   Clear
11:53 PM 24.1 °F 16.0 °F 3.9 °F 42% 30.08 in 10.0 mi North 6.9 mph 18.4 mph N/A   Clear